Time,TemperatureF,DewpointF,PressureIn,WindDirection,WindDirectionDegrees,WindSpeedMPH,WindSpeedGustMPH,Humidity,HourlyPrecipIn,Conditions,Clouds,dailyrainin,SolarRadiationWatts/m^2,SoftwareType,DateUTC
2014-01-24 00:22:00,18.0,-7.0,-100.00,NW,311,3.0,8.0,31,0.00,,,0.02,0.000000,,2014-01-24 07:22:00,
2014-01-24 00:32:00,18.0,-7.0,-100.00,NW,311,3.0,8.0,31,0.00,,,0.02,0.000000,,2014-01-24 07:32:00,
2014-01-24 00:42:00,18.0,-7.0,-100.00,NW,311,3.0,8.0,31,0.00,,,0.02,0.000000,,2014-01-24 07:42:00,
2014-01-24 01:22:00,18.0,-10.0,-100.00,NNW,341,2.0,7.0,27,0.00,,,0.02,0.000000,,2014-01-24 08:22:00,
2014-01-24 01:33:00,18.0,-10.0,-100.00,NNW,341,2.0,7.0,27,0.00,,,0.02,0.000000,,2014-01-24 08:33:00,
2014-01-24 13:22:00,48.0,-10.0,-100.00,NW,310,7.0,16.0,8,-99.99,,,0.00,644.000000,,2014-01-24 20:22:00,
2014-01-24 13:32:00,48.0,-10.0,-100.00,NW,310,7.0,16.0,8,-99.99,,,0.00,644.000000,,2014-01-24 20:32:00,
2014-01-24 14:22:00,48.0,-4.0,-100.00,NW,319,6.0,17.0,11,-99.99,,,0.00,589.000000,,2014-01-24 21:22:00,
2014-01-24 14:33:00,48.0,-4.0,-100.00,NW,319,6.0,17.0,11,-99.99,,,0.00,589.000000,,2014-01-24 21:33:00,
2014-01-24 15:23:00,47.0,-1.0,-100.00,NW,304,5.0,15.0,13,0.00,,,0.00,465.000000,,2014-01-24 22:23:00,
2014-01-24 15:33:00,47.0,-1.0,-100.00,NW,304,5.0,15.0,13,0.00,,,0.00,465.000000,,2014-01-24 22:33:00,
2014-01-24 15:43:00,47.0,-1.0,-100.00,NW,304,5.0,15.0,13,0.00,,,0.00,465.000000,,2014-01-24 22:43:00,
2014-01-24 15:52:00,47.0,-1.0,-100.00,NW,304,5.0,15.0,13,0.00,,,0.00,465.000000,,2014-01-24 22:52:00,
2014-01-24 16:22:00,44.0,2.0,-100.00,NW,320,3.0,12.0,17,0.00,,,0.00,240.000000,,2014-01-24 23:22:00,
2014-01-24 16:33:00,44.0,2.0,-100.00,NW,320,3.0,12.0,17,0.00,,,0.00,240.000000,,2014-01-24 23:33:00,
2014-01-24 16:42:00,44.0,2.0,-100.00,NW,320,3.0,12.0,17,0.00,,,0.00,240.000000,,2014-01-24 23:42:00,
2014-01-24 16:52:00,44.0,2.0,-100.00,NW,320,3.0,12.0,17,0.00,,,0.00,240.000000,,2014-01-24 23:52:00,
2014-01-24 17:22:00,37.0,4.0,-100.00,North,-999,0.0,7.0,25,0.00,,,0.00,38.000000,,2014-01-25 00:22:00,
2014-01-24 17:32:00,37.0,4.0,-100.00,North,-999,0.0,7.0,25,0.00,,,0.00,38.000000,,2014-01-25 00:32:00,
2014-01-24 17:42:00,37.0,4.0,-100.00,North,-999,0.0,7.0,25,0.00,,,0.00,38.000000,,2014-01-25 00:42:00,
2014-01-24 17:52:00,37.0,4.0,-100.00,North,-999,0.0,7.0,25,0.00,,,0.00,38.000000,,2014-01-25 00:52:00,
2014-01-24 18:22:00,33.0,8.0,-100.00,WSW,251,2.0,4.0,35,0.00,,,0.00,5.000000,,2014-01-25 01:22:00,
2014-01-24 18:32:00,33.0,8.0,-100.00,WSW,251,2.0,4.0,35,0.00,,,0.00,5.000000,,2014-01-25 01:32:00,
2014-01-24 18:42:00,33.0,8.0,-100.00,WSW,251,2.0,4.0,35,0.00,,,0.00,5.000000,,2014-01-25 01:42:00,
2014-01-24 18:52:00,33.0,8.0,-100.00,WSW,251,2.0,4.0,35,0.00,,,0.00,5.000000,,2014-01-25 01:52:00,
2014-01-24 19:21:00,31.0,10.0,-100.00,WSW,257,2.0,5.0,40,0.00,,,0.00,0.000000,,2014-01-25 02:21:00,
2014-01-24 19:32:00,31.0,10.0,-100.00,WSW,257,2.0,5.0,40,0.00,,,0.00,0.000000,,2014-01-25 02:32:00,
2014-01-24 19:42:00,31.0,10.0,-100.00,WSW,257,2.0,5.0,40,0.00,,,0.00,0.000000,,2014-01-25 02:42:00,
2014-01-24 19:52:00,31.0,10.0,-100.00,WSW,257,2.0,5.0,40,0.00,,,0.00,0.000000,,2014-01-25 02:52:00,
2014-01-24 20:22:00,31.0,8.0,-100.00,East,99,2.0,8.0,38,0.00,,,0.00,0.000000,,2014-01-25 03:22:00,
2014-01-24 20:33:00,31.0,8.0,-100.00,East,99,2.0,8.0,38,0.00,,,0.00,0.000000,,2014-01-25 03:33:00,
2014-01-24 20:43:00,31.0,8.0,-100.00,East,99,2.0,8.0,38,0.00,,,0.00,0.000000,,2014-01-25 03:43:00,
2014-01-24 20:53:00,31.0,8.0,-100.00,East,99,2.0,8.0,38,0.00,,,0.00,0.000000,,2014-01-25 03:53:00,
2014-01-24 21:23:00,37.0,8.0,-100.00,WNW,302,3.0,8.0,29,0.00,,,0.00,0.000000,,2014-01-25 04:23:00,
2014-01-24 21:33:00,37.0,8.0,-100.00,WNW,302,3.0,8.0,29,0.00,,,0.00,0.000000,,2014-01-25 04:33:00,
2014-01-24 21:43:00,37.0,8.0,-100.00,WNW,302,3.0,8.0,29,0.00,,,0.00,0.000000,,2014-01-25 04:43:00,
2014-01-24 21:52:00,37.0,8.0,-100.00,WNW,302,3.0,8.0,29,0.00,,,0.00,0.000000,,2014-01-25 04:52:00,
2014-01-24 22:22:00,35.0,9.0,-100.00,WNW,282,3.0,6.0,33,0.00,,,0.00,0.000000,,2014-01-25 05:22:00,
2014-01-24 22:32:00,35.0,9.0,-100.00,WNW,282,3.0,6.0,33,0.00,,,0.00,0.000000,,2014-01-25 05:32:00,
2014-01-24 22:43:00,35.0,9.0,-100.00,WNW,282,3.0,6.0,33,0.00,,,0.00,0.000000,,2014-01-25 05:43:00,
2014-01-24 22:52:00,35.0,9.0,-100.00,WNW,282,3.0,6.0,33,0.00,,,0.00,0.000000,,2014-01-25 05:52:00,
2014-01-24 23:22:00,34.0,9.0,-100.00,NW,326,1.0,6.0,35,0.00,,,0.00,0.000000,,2014-01-25 06:22:00,
2014-01-24 23:32:00,34.0,9.0,-100.00,NW,326,1.0,6.0,35,0.00,,,0.00,0.000000,,2014-01-25 06:32:00,
2014-01-24 23:42:00,34.0,9.0,-100.00,NW,326,1.0,6.0,35,0.00,,,0.00,0.000000,,2014-01-25 06:42:00,
2014-01-24 23:53:00,34.0,9.0,-100.00,NW,326,1.0,6.0,35,0.00,,,0.00,0.000000,,2014-01-25 06:53:00,